sat.trackr.live / text

‹ back to catalog

STARLINK-37194

NORAD 68397 · 2026-063T

PAYLOAD ACTIVE UNKNOWN

§ Identity

Operator
Country
US
Launch date
2026-03-26
Launch site
AFWTR
Launch vehicle
Mass (kg)
RCS (m²)

Purposes: comms

External: N2YO · Heavens-Above · Gunter

§ Orbital elements

Epoch: 2026-09-20T03:18:39.870144Z

Period
93.91 min
Inclination
97.2839°
Eccentricity
0.0000565
Mean motion
15.33457828 rev/d
Perigee alt
465.1 km
Apogee alt
465.9 km
Semi-major
6,843.6 km
B*
5.0653e-4
RAAN
44.0106°
Arg perigee
247.9588°
Mean anomaly
112.1595°
Rev number
2,769

§ Raw data

STARLINK-371941 68397U 26063T   26263.13796146  .00016319  00000+0  50653-3 0  99972 68397  97.2839  44.0106 0000565 247.9588 112.1595 15.33457828 27691

JSON: /api/v1/satellites/68397 · /tle

For live sub-satellite position, see the globe view (requires WebGL).

§ Visibility from observer

Set your observer location to see the next 7 days of passes ≥ 10°. The values pass through the URL so the page stays shareable.

No JS? Fill the form by hand. The geolocation button needs JavaScript.